www.pogodaiklimat.ru

Погода и климат >> Архив погоды >> Австралия >> Западная Австралия >> Калгурли-Боулдер


ПОГОДА в Калгурли-Боулдере

  • Прогноз погоды в Калгурли-Боулдере
  • Монитор погоды в Калгурли-Боулдере

АРХИВ ПОГОДЫ в Калгурли-Боулдере

Время (UTC), дата Ветер
(напр.,м/с)
 
Видим.   Явления Облачность Т
(С)
Тd
(С)
f
(%)
Тe
(С)
Тes
(С)
Комфортность P
(гПа)
Po
(гПа)
Тmin
(С)
Tmax
(С)
R
(мм)
R24
(мм)
S
(см)
16 12.05 СЗ 2 н/о н/о +9.0 -0.1 53 +8 +8 1022.2 979.1
18 12.05 штиль 0 н/о н/о +7.4 -0.8 56 +7 +7 1022.1 979.0
19 12.05 штиль 0 н/о н/о +6.8 -0.6 59 +6 +6 1021.9 978.8
21 12.05 З 1 н/о н/о +6.8 -0.9 58 +7 +7 1022.1 979.0
22 12.05 штиль 0 н/о н/о +5.2 -1.5 62 +5 +5 1022.5 979.4
00 13.05 штиль 0 н/о н/о +11.5 0.0 45 +11 +11 1023.6 980.5
01 13.05 СЗ 2 н/о н/о +16.3 +0.4 34 +17 +17 1024.1 980.9 +5.3
03 13.05 штиль 0 н/о н/о +21.7 +0.3 24 +21 +21 комфорт 1023.6 980.5
04 13.05 СЗ 2 н/о н/о +23.1 +0.2 22 +22 +22 комфорт 1022.9 979.8
06 13.05 С 1 н/о н/о +24.0 -0.3 20 +23 +23 комфорт 1021.8 978.7
07 13.05 ЮЗ 3 н/о н/о +23.6 -0.6 20 +22 +22 комфорт 1021.8 978.7
09 13.05 штиль 0 н/о н/о +21.4 -1.2 22 +21 +21 комфорт 1022.5 979.4
10 13.05 СВ 1 н/о н/о +17.5 -1.2 28 +19 +19 1023.1 980.0
12 13.05 штиль 0 н/о н/о +15.5 -0.3 34 +16 +16 1024.1 980.9
13 13.05 ЮВ 2 н/о н/о +14.8 -0.9 34 +15 +15 1024.5 981.3 +24.4
15 13.05 ЮВ 2 н/о н/о +12.7 -0.2 41 +13 +13 1024.5 981.3
16 13.05 ЮВ 2 н/о н/о +11.8 -0.7 42 +12 +12 1024.3 981.1
18 13.05 ЮВ 2 н/о н/о +10.7 -0.4 46 +10 +10 1024.3 981.1
19 13.05 ЮВ 2 н/о н/о +8.8 -0.5 52 +7 +7 1024.3 981.1
21 13.05 ЮВ 3 н/о н/о +7.9 -0.3 56 +6 +6 1025.0 981.8
22 13.05 ЮВ 2 н/о н/о +6.6 -0.4 61 +5 +5 1025.6 982.4
00 14.05 ЮВ 2 н/о н/о +11.4 +1.6 51 +11 +11 1026.8 983.5
01 14.05 СВ 2 н/о н/о +15.8 +1.5 38 +16 +16 1026.7 983.4 +6.5
03 14.05 С 4 н/о н/о +22.0 +1.1 25 +22 +22 комфорт 1026.0 982.8
04 14.05 С 4 н/о н/о +24.1 +1.1 22 +23 +23 комфорт 1025.0 981.8
06 14.05 В 4 н/о н/о +24.3 -0.8 19 +23 +23 комфорт 1023.6 980.5
07 14.05 СВ 2 н/о н/о +24.6 -0.5 19 +23 +23 комфорт 1023.5 980.4
09 14.05 В 4 н/о н/о +22.1 -0.6 22 +21 +21 комфорт 1023.6 980.5
10 14.05 В 2 н/о н/о +18.7 -1.2 26 +19 +19 1024.3 981.1
12 14.05 В 3 н/о н/о +15.8 -0.8 32 +16 +16 1024.9 981.7
13 14.05 СВ 4 н/о н/о +18.7 -1.2 26 +19 +19 1025.2 982.0 +25.3
15 14.05 СВ 5 н/о н/о +17.9 -0.4 29 +18 +18 1024.9 981.7
16 14.05 СВ 5 н/о н/о +17.4 -0.8 29 +17 +17 1024.8 981.6
18 14.05 СВ 4 н/о н/о +15.5 -1.5 31 +15 +15 1024.3 981.1
19 14.05 СВ 1 н/о н/о +13.3 -2.2 34 +14 +14 1024.2 981.0
21 14.05 С 2 н/о н/о +12.6 -2.1 36 +12 +12 1024.2 981.0
22 14.05 С 2 н/о 9/0
[]
+10.8 -2.2 40 +10 +10 1024.4 981.2
00 15.05 СВ 3 н/о н/о +14.4 -2.1 32 +14 +14 1025.1 981.9
01 15.05 С 4 н/о н/о +17.3 -1.4 28 +17 +17 1025.2 982.0 +9.2
03 15.05 С 5 н/о н/о +22.2 -1.1 21 +21 +21 комфорт 1024.2 981.0
04 15.05 С 3 н/о н/о +23.9 -1.8 18 +22 +22 комфорт 1022.9 979.8
06 15.05 СВ 3 н/о н/о +24.6 -3.7 15 +23 +23 комфорт 1021.1 978.1
07 15.05 С 4 н/о н/о +25.5 -3.9 14 +23 +23 комфорт 1020.8 977.8
09 15.05 штиль 0 н/о н/о +22.6 -2.9 18 +21 +21 комфорт 1020.3 977.3
10 15.05 СЗ 2 н/о н/о +18.4 -3.7 22 +19 +19 1020.9 977.9
12 15.05 СВ 2 н/о н/о +16.3 -2.2 28 +17 +17 1021.4 978.4
13 15.05 С 2 н/о н/о +15.4 -2.1 30 +16 +16 1021.1 978.1 +25.9
15 15.05 С 3 н/о н/о +15.3 -4.1 26 +15 +15 1020.4 977.4
16 15.05 С 2 н/о н/о +13.3 -3.9 30 +13 +13 1020.1 977.1
18 15.05 С 3 н/о н/о +13.9 -4.8 27 +13 +13 1019.0 976.1
19 15.05 С 4 н/о н/о +13.6 -5.0 27 +13 +13 1018.6 975.7
21 15.05 С 3 н/о н/о +10.8 -5.2 32 +10 +10 1018.5 975.6
22 15.05 СЗ 3 н/о 1/0
[]
+10.4 -5.2 33 +9 +9 1018.5 975.6
00 16.05 С 3 н/о н/о +14.9 -4.4 26 +14 +14 1018.7 975.8
01 16.05 С 4 н/о н/о +19.2 -3.6 21 +19 +19 1018.5 975.6 +9.9
03 16.05 СЗ 4 н/о н/о +24.0 -4.2 15 +22 +22 комфорт 1017.3 974.4
04 16.05 СЗ 5 н/о 5/0
[]
+27.3 -4.6 12 +24 +28 комфорт 1016.2 973.4
06 16.05 СЗ 6 н/о н/о +27.2 -5.8 11 +24 +24 комфорт 1014.6 971.8
07 16.05 СЗ 5 н/о 10/0
[]
+26.7 -6.2 11 +24 +25 комфорт 1014.3 971.6
09 16.05 ЮЗ 9 н/о н/о +22.6 -2.9 18 +21 +21 комфорт 1015.7 972.9
10 16.05 ЮЗ 5 н/о 10/0
[]
+21.0 -0.9 23 +21 +21 комфорт 1016.9 974.0
12 16.05 ЮЗ 4 н/о н/о +17.2 +6.4 49 +17 +17 1018.1 975.2
13 16.05 Ю 3 н/о 10/0
[]
+16.1 +7.1 55 +16 +16 1018.0 975.1 +28.5
15 16.05 Ю 6 н/о н/о +13.9 +9.5 75 +12 +12 1017.4 974.5
16 16.05 Ю 8 н/о ливневой дождь 10/10 300 м
[]
+11.2 +9.5 89 +8 +8 1018.2 975.3
18 16.05 Ю 6 н/о н/о +9.2 +7.6 90 +5 +5 1018.8 975.9
19 16.05 Ю 5 н/о слаб. дождь {туман} 10/10 300 м
[]
+8.8 +7.9 94 +5 +5 1018.9 976.0
21 16.05 Ю 6 н/о н/о +8.6 +8.0 96 +4 +4 1018.7 975.8
22 16.05 Ю 7 н/о дождь {туман} 10/10 300 м
[]
+8.4 +7.3 93 +4 +4 1019.8 976.8
00 17.05 Ю 4 н/о н/о +8.8 +8.0 95 +6 +6 1021.3 978.3
01 17.05 Ю 4 н/о в посл. час дождь со снегом {туман} 10/10 300 м
[]
+9.3 +8.1 92 +6 +6 1021.5 978.5 +8.3
03 17.05 Ю 5 н/о н/о +10.1 +7.5 84 +7 +7 1021.2 978.2
04 17.05 Ю 6 н/о {туман} 10/10 600 м
[]
+11.4 +6.3 71 +9 +9 1020.1 977.1
06 17.05 ЮЗ 6 н/о н/о +12.6 +4.1 56 +10 +10 1019.4 976.4
07 17.05 ЮЗ 7 н/о {туман} 6/6 1000 м
[]
+11.4 +3.9 60 +8 +9 1019.7 976.7
09 17.05 Ю 4 н/о н/о +10.8 +3.8 62 +9 +9 1020.6 977.6
10 17.05 Ю 4 н/о н/о +8.9 +4.3 73 +6 +6 1021.7 978.6
12 17.05 Ю 3 н/о н/о +7.3 +3.9 79 +4 +4 1022.6 979.5
13 17.05 ЮЗ 3 н/о н/о +6.5 +3.7 82 +3 +3 1022.7 979.6 +17.3
15 17.05 З 3 н/о н/о +5.0 +3.2 88 +2 +2 1022.1 979.0
16 17.05 ЮЗ 3 н/о н/о +4.7 +3.0 89 +1 +1 1021.3 978.3
18 17.05 З 2 н/о н/о +3.3 +2.3 93 0 0 1020.7 977.7
19 17.05 З 3 н/о н/о +2.8 +1.9 94 -1 -1 1020.4 977.4
21 17.05 З 3 н/о н/о +2.6 +1.9 95 -2 -2 1020.3 977.3
22 17.05 З 3 н/о н/о +2.2 +1.5 95 -2 -2 1020.9 977.9
00 18.05 З 5 н/о н/о +4.3 +2.8 90 -1 -1 1022.0 978.9
01 18.05 ЮЗ 4 н/о н/о +6.9 +3.9 81 +3 +3 1022.2 979.1 +2.1
03 18.05 ЮЗ 5 н/о н/о +9.7 +3.4 65 +7 +7 1021.5 978.5
04 18.05 З 6 н/о 1/1 600 м
[]
+11.3 +3.1 57 +9 +12 1020.9 977.9
06 18.05 З 5 н/о н/о +13.0 +1.7 46 +11 +11 1019.8 976.8
07 18.05 З 5 н/о н/о +13.0 +0.1 41 +11 +11 1019.6 976.6
09 18.05 З 5 н/о н/о +11.6 +0.4 46 +10 +10 1019.8 976.8
10 18.05 З 3 н/о н/о +9.6 +1.3 56 +8 +8 1020.4 977.4
12 18.05 ЮЗ 3 н/о н/о +7.9 +1.3 63 +5 +5 1021.9 978.8
13 18.05 ЮЗ 3 н/о н/о +7.0 +1.5 68 +5 +5 1021.9 978.8 +13.7
15 18.05 З 3 н/о н/о +5.4 +2.1 79 +2 +2 1022.0 978.9
16 18.05 З 3 н/о н/о +4.9 +1.6 79 +2 +2 1021.9 978.8
18 18.05 З 3 н/о н/о +3.9 +1.4 84 +1 +1 1021.5 978.5
19 18.05 СЗ 1 н/о н/о +2.2 +0.7 90 0 0 1021.3 978.3
21 18.05 штиль 0 н/о н/о +1.1 +0.1 93 -0 -0 1021.3 978.3
22 18.05 СЗ 1 н/о н/о +0.5 -0.4 94 -0 -0 1021.4 978.4
00 19.05 С 2 н/о н/о +5.4 +2.4 81 +3 +3 1021.9 978.8
01 19.05 С 2 н/о н/о +9.3 +3.9 69 +8 +8 1022.3 979.2 +0.6
03 19.05 СЗ 4 н/о н/о +12.7 +3.1 52 +11 +11 1021.8 978.7
04 19.05 С 3 н/о н/о +13.9 +2.5 46 +13 +13 1020.7 977.7
06 19.05 СЗ 4 н/о н/о +16.2 +1.1 36 +16 +16 1019.1 976.2
07 19.05 СЗ 4 н/о н/о +16.8 0.0 32 +17 +17 1018.6 975.7
09 19.05 С 2 н/о н/о +15.0 +1.2 39 +15 +15 1018.3 975.4
10 19.05 СВ 2 н/о н/о +11.2 +3.3 58 +10 +10 1018.3 975.4
12 19.05 С 2 н/о н/о +9.4 +2.3 61 +8 +8 1018.7 975.8
13 19.05 С 2 н/о н/о +9.7 +1.6 57 +8 +8 1018.6 975.7 +17.6

 

Местоположение метеостанции Калгурли-Боулдер (Западная Австралия, Австралия): широта -30.78 долгота 121.45 высота над уровнем моря 370 м.

В архиве по умолчанию представлена погода в Калгурли-Боулдере за последнюю неделю. Архивные данные за месяц целиком и за предыдущие месяцы, начиная с января 2011 года, Вы можете получить, выбрав интересующий диапазон дат из раскрывающегося списка и нажав кнопку "Ввод!".


*Определитесь, кто Вы:
робот инопланетянин человек

Внимание! Время в таблицах - всемирное. Для получения местного времени необходимо прибавить поправку, которая равна 8 ч.

Смотрите также архив погоды в соседних городах и на ближайших метеорологических станциях:

Погода в Норсмане (Западная Австралия, Австралия) (163 км)
Погода в Саутерн Кросс (Западная Австралия, Австралия) (206 км)
Погода в Леонора аэропорту (Западная Австралия, Австралия) (212 км)
Погода в Салмон Гамс (Западная Австралия, Австралия) (245 км)
Погода в Лавертоне (Западная Австралия, Австралия) (259 км)
Погода в Мунглинап Запад (Западная Австралия, Австралия) (316 км)
Погода в Эсперансе (Западная Австралия, Австралия) (325 км)
Погода в Леинстере (Западная Австралия, Австралия) (334 км)
Погода в Эсперансе (Западная Австралия, Австралия) (342 км)
Погода в Ньюдегейте (Западная Австралия, Австралия) (359 км)

Пояснения к столбцам:

Ветер - указаны скорость ветра в м/с - средняя за 10 мин, порывы в срок и между сроками (в фигурных скобках) и направление, откуда дует ветер: С - северный, СВ - северо-восточный, В - восточный, ЮВ - юго-восточный, Ю - южный, ЮЗ - юго-западный, З - западный, СЗ - северо-западный.
Видимость - горизонтальная дальность видимости в метрах или километрах. При видимости от 1 до 10 км при отсутствии осадков обычно наблюдается дымка, при ухудшении видимости до 1 км и менее - туман. В сухую погоду видимость может ухудшаться дымом, пылью или мглою.
Явления - указаны атмосферные явления, наблюдавшиеся в срок или в последний час перед сроком; фигурными скобками обозначены явления, наблюдавшиеся между сроками (за 1-3 часа до срока); квадратными скобками обозначены град или гололедные отложения с указанием их диаметра в мм.
Облачность - указаны через наклонную черту общая и нижняя облачность в баллах и высота нижней границы облаков в метрах; квадратными скобками обозначены формы облаков: Ci - перистые, Cs - перисто-слоистые, Cc - перисто-кучевые, Ac - высококучевые, As - высокослоистые, Sc - слоисто-кучевые, Ns - слоисто-дождевые, Cu - кучевые, Cb - кучево-дождевые. Подробнее классификацию облаков см. в Атласе облаков (PDF).
T - Температура воздуха - температура, измеренная на высоте 2 м над землей.
Td - Температура точки росы - температура, при понижении до которой содержащийся в воздухе водяной пар достигнет насыщения.
f - Относительная влажность воздуха - влажноcть воздуха, измеренная на высоте 2 м над землей.
Te - Эффективная температура - температура, которую ощущает одетый по сезону человек в тени. Характеристика душности погоды. При расчете учитывается влияние влажности воздуха и скорости ветра на теплоощущения человека.
Tes - Эффективная температура на солнце - температура, которую ощущает человек, с поправкой на солнечный нагрев. Характеристика знойности погоды. Зависит от высоты солнца над горизонтом, облачности и скорости ветра. Ночью, в пасмурную погоду, а также при ветре 12 м/с и более поправка равна нулю.
P - Атмосферное давление - приведенное к уровню моря атмосферное давление.
Po - Атмосферное давление - измеренное на уровне метеостанции атмосферное давление.
Tmin - Минимальная температура - минимум температуры воздуха на высоте 2 м над землей.
Tmax - Максимальная температура - максимум температуры воздуха на высоте 2 м над землей.
R - Количество осадков - Количество выпавших осадков за период времени, мм. При наведении курсора мыши на число - период времени, за который выпало указанное количество осадков.
R24 - Количество осадков - Количество выпавших осадков за 24 часа, мм.
S - Снежный покров - Высота снежного покрова, см. При наведении курсора мыши на число - состояние снежного покрова и степень покрытия местности в баллах.